Regional Weather Roundup
Issued by NWS

Home | Current Version | Previous Version | Text Only | Print | Product List | Glossary On
Versions: 1 2 3 4 5 6 7 8 9 10 11 12 13 14 15 16 17 18 19 20 21 22 23 24 25 26 27 28 29 30 31 32 33 34 35 36 37 38 39 40 41 42 43 44 45 46 47 48 49 50
000
ASUS44 KOUN 181210
RWROK

WEATHER ROUNDUP FOR OKLAHOMA
NATIONAL WEATHER SERVICE NORMAN OK
600 AM CST THU JAN 18 2018

NOTE: "FAIR" INDICATES FEW OR NO CLOUDS BELOW 12,000 FEET WITH NO
      SIGNIFICANT WEATHER AND/OR OBSTRUCTIONS TO VISIBILITY.

OKZ001>007-009>012-014-015-017-181300-
NORTHWEST OKLAHOMA AND THE PANHANDLE

CITY           SKY/WX    TMP DP  RH WIND       PRES   REMARKS
GAGE           CLOUDY    22   4  46 S9        30.27F WCI  12
6HR MIN TEMP:  20; 6HR MAX TEMP:  26;

GUYMON         CLOUDY    17   9  70 S6        30.18F WCI   9
$$

OKZ016-021>023-033>039-044-045-181300-
SOUTHWEST OKLAHOMA

CITY           SKY/WX    TMP DP  RH WIND       PRES   REMARKS
LAWTON/REGL    CLOUDY    12   8  84 CALM      30.45S
6HR MIN TEMP:  12; 6HR MAX TEMP:  18;

LAWTON/FT SILL CLOUDY    17   7  64 CALM      30.42F
FREDERICK      CLOUDY    16   3  56 S3        30.39F
CLINTON        CLEAR     17   1  49 S13       30.34F WCI   4
HOBART         CLEAR     18   4  54 S10       30.38F WCI   6
ALTUS AFB      CLOUDY    12   0  58 E5        30.40F WCI   4
$$

OKZ018>020-024>031-181300-
CENTRAL OKLAHOMA

CITY           SKY/WX    TMP DP  RH WIND       PRES   REMARKS
OKLAHOMA CITY  CLOUDY    15   6  67 S9        30.40F WCI   3
6HR MIN TEMP:  15; 6HR MAX TEMP:  21;

OKC/WILEY POST CLOUDY    22   6  50 S13       30.40F WCI  10
OKC/TINKER AFB CLOUDY    18   5  56 S12       30.40F WCI   6
STILLWATER     CLOUDY    17   5  59 S8        30.39F WCI   7
GUTHRIE        CLOUDY    23   5  46 S9        30.39F WCI  13
$$

OKZ008-013-054>072-181300-
NORTHEAST OKLAHOMA

CITY           SKY/WX    TMP DP  RH WIND       PRES   REMARKS
TULSA          CLOUDY    22   7  52 S10       30.43F WCI  11
6HR MIN TEMP:  18; 6HR MAX TEMP:  24;

TULSA/JONES    CLOUDY    20   7  57 S6        30.46F WCI  12
PONCA CITY     CLOUDY    21   4  47 S6        30.38F WCI  13
BARTLESVILLE   CLOUDY    14   6  70 S7        30.43F WCI   4
MUSKOGEE       CLOUDY    14   8  77 S3        30.50F
$$

OKZ032-040>043-046>053-073>077-181300-
SOUTH CENTRAL/SOUTHEAST OKLAHOMA

CITY           SKY/WX    TMP DP  RH WIND       PRES   REMARKS
ARDMORE/DWNTWN CLOUDY    18   9  68 CALM      30.48S
MCALESTER      CLOUDY    17   8  67 S6        30.49F WCI   9
$$




USA.gov is the U.S. government's official web portal to all federal, state and local government web resources and services.